Meteo Giornale » Osservazioni meteo Stati Uniti (USA) » Klawock
ore: 12:53 - Osservazioni Meteo Klawock
Lat. 55° 35' N Lon. 133° 5' W Alt. 15 metri s.l.m.
17 °C
Coperto
Temp. 24 Ore
14 °C
18 °C
Sud/Sud-Ovest
13 Km/h
Dew point 11 °C
Umidità 67 %
Visibilità 10 Km
Il sole sorge alle ore 05:56
Il sole tramonta alle ore 19:48
| Data e Ora | Cielo e Fenomeni | T °C | DP °C | Um. % | Pres. hPa | Vis. km | Vento km/h | |
|---|---|---|---|---|---|---|---|---|
| Oggi h: 12:53 | Coperto | 17 | 11 | 67 | 1005 | 10 | S/SO 13 | |
| Oggi h: 12:15 | Coperto | 17 | 12 | 72 | 1005 | 10 | N 0 | |
| Oggi h: 11:53 | Coperto | 17 | 11 | 67 | 1005 | 10 | S/SO 7.4 | |
| Oggi h: 11:31 | Coperto | 17 | 11 | 67 | 1006 | 10 | S/SO 14.8 | |
| Oggi h: 10:53 | Coperto | 17 | 12 | 72 | 1006 | 10 | S/SO 11.1 | |
| Oggi h: 10:43 | Coperto | 17 | 12 | 72 | 1006 | 10 | SO 13 | |
| Oggi h: 10:28 | Coperto | 17 | 12 | 72 | 1006 | 10 | N 7.4 | |
| Oggi h: 10:21 | Coperto | 17 | 12 | 72 | 1006 | 10 | S/SO 9.3 | |
| Oggi h: 10:13 | Coperto | 17 | 12 | 72 | 1006 | 10 | N 5.5 | |
| Oggi h: 09:53 | Coperto | 17 | 12 | 72 | 1006 | 10 | N 5.5 | |
| Oggi h: 08:53 | Coperto | 16 | 12 | 77 | 1006 | 10 | N 5.5 | |
| Oggi h: 08:25 | Coperto | 16 | 12 | 77 | 1006 | 10 | N 5.5 | |
| Oggi h: 07:53 | Coperto | 15 | 12 | 82 | 1007 | 14 | N 5.5 | |
| Oggi h: 07:43 | Coperto | 15 | 12 | 82 | 1007 | 10 | N 5.5 | |
| Oggi h: 07:21 | Coperto | 15 | 12 | 82 | 1007 | 14 | N 0 | |
| Oggi h: 06:53 | Coperto | 15 | 12 | 82 | 1007 | 13 | N 0 | |
| Oggi h: 06:50 | Coperto | 15 | 12 | 82 | 1007 | 11 | N 0 | |
| Oggi h: 06:30 | Foschia | 14 | 12 | 87 | 1007 | 10 | N 0 | |
| Oggi h: 06:21 | Coperto | 14 | 12 | 87 | 1007 | 11 | N 0 | |
| Oggi h: 06:01 | Foschia | 14 | 12 | 87 | 1007 | 10 | N 0 | |
| Oggi h: 05:53 | Coperto | 14 | 12 | 87 | 1007 | 11 | N 0 | |
| Oggi h: 05:40 | Foschia | 14 | 12 | 87 | 1007 | 8 | N 0 | |
| Oggi h: 05:29 | Foschia | 14 | 12 | 87 | 1007 | 3 | N 0 | |
| Oggi h: 05:21 | Foschia | 14 | 12 | 87 | 1007 | 5 | N 0 | |
| Oggi h: 04:53 | Foschia | 14 | 12 | 87 | 1007 | 8 | N 0 | |
| Oggi h: 04:25 | Foschia | 14 | 12 | 87 | 1008 | 2 | N 0 | |
| Oggi h: 04:18 | Foschia | 14 | 12 | 87 | 1008 | 6 | N 0 | |
| Oggi h: 04:08 | Coperto | 14 | 12 | 87 | 1008 | 11 | N 0 | |
| Oggi h: 03:53 | Coperto | 14 | 12 | 87 | 1008 | 13 | N 0 | |
| Oggi h: 03:50 | Coperto | 14 | 12 | 87 | 1008 | 13 | N 0 | |
| Oggi h: 03:02 | Coperto | 14 | 11 | 82 | 1008 | 14 | N 0 | |
| Oggi h: 02:53 | Coperto | 14 | 11 | 82 | 1008 | 13 | N 0 | |
| Oggi h: 01:53 | Coperto | 15 | 12 | 82 | 1009 | 13 | N 0 | |
| Oggi h: 01:37 | Coperto | 15 | 12 | 82 | 1009 | 14 | N 0 | |
| Oggi h: 00:53 | Coperto | 15 | 12 | 82 | 1009 | 14 | N 0 | |
| Oggi h: 00:38 | Coperto | 15 | 12 | 82 | 1009 | 10 | N 0 | |
| Ieri h: 23:53 | Coperto | 15 | 12 | 82 | 1010 | 10 | N 0 | |
| Ieri h: 22:53 | Coperto | 16 | 12 | 77 | 1010 | 10 | N 0 | |
| Ieri h: 21:53 | Coperto | 16 | 12 | 77 | 1010 | 10 | N 0 | |
| Ieri h: 20:53 | Coperto | 16 | 12 | 77 | 1010 | 10 | N 0 | |
| Ieri h: 20:41 | Coperto | 16 | 12 | 77 | 1010 | 10 | N 0 | |
| Ieri h: 19:53 | Coperto | 16 | 12 | 77 | 1010 | 10 | N 0 | |
| Ieri h: 18:53 | Coperto | 16 | 13 | 82 | 1010 | 10 | N 5.5 | |
| Ieri h: 17:53 | Coperto | 17 | 12 | 72 | 1010 | 10 | N 5.5 | |
| Ieri h: 16:53 | Coperto | 18 | 13 | 72 | 1010 | 10 | N 0 | |
| Ieri h: 15:53 | Coperto | 18 | 12 | 67 | 1010 | 10 | S/SO 9.3 | |
| Ieri h: 14:53 | Coperto | 18 | 13 | 72 | 1011 | 10 | S/SO 7.4 | |
| Ieri h: 13:53 | Coperto | 18 | 12 | 67 | 1010 | 10 | S/SO 11.1 | |



